Weather History for Akron, CO

Change the Weather History Date:

Wednesday, October 3, 2012

  Actual Average Record
Temperature  
Mean Temperature 61 °F 55 °F  
Max Temperature 86 °F 69 °F 90 °F (1967)
Min Temperature 35 °F 41 °F 29 °F (1950)
Degree Days  
Heating Degree Days 4    
Month to date heating degree days 13  
Cooling Degree Days 0    
Month to date cooling degree days 0  
Growing Degree Days 10 (Base 50)    
Moisture  
Dew Point 29 °F    
Average Humidity 34    
Maximum Humidity 59    
Minimum Humidity 9    
Precipitation  
Precipitation 0.00 in 0.04 in 0.53 in (1984)
Month to date precipitation T 0.12  
Year to date precipitation 7.10 14.77  
Sea Level Pressure  
Sea Level Pressure 29.84 in    
Wind  
Wind Speed 17 mph (WNW)    
Max Wind Speed 43 mph    
Max Gust Speed 53 mph    
Visibility 10 miles    
Events      
T = Trace of Precipitation, MM = Missing Value Source: NWS Daily Summary

Daily Weather History Graph

Daily Weather History Graph

Search for Another Location

Airport:

Trip Planner

Search our weather history database for the weather conditions in past years. The results will help you decide how hot, cold, wet, or windy it might be!

Date:

Astronomy

Oct. 03, 2012 Rise Set
Actual Time 6:51 AM MDT 6:30 PM MDT
Civil Twilight 6:24 AM MDT 6:58 PM MDT
Nautical Twilight 5:53 AM MDT 7:29 PM MDT
Astronomical Twilight 5:21 AM MDT 8:01 PM MDT
Moon 8:24 PM MDT (10/3) 10:17 AM MDT (10/3)
Length of Visible Light 12h 33m
Length of Day
11h 39m
Waning Gibbous, 88% of the Moon is Illuminated
Oct 3
Waning Gibbous
Oct 8
Last Quarter
Oct 15
New
Oct 21
First Quarter
Oct 29
Full

Hourly Weather History & Observations

Time (MDT) Temp. Windchill Dew Point Humidity Pressure Visibility Wind Dir Wind Speed Gust Speed Precip Events Conditions
12:53 AM 57.9 °F - 32.0 °F 37% 29.72 in 10.0 mi WSW 15.0 mph - N/A   Clear
1:53 AM 57.9 °F - 32.0 °F 37% 29.72 in 10.0 mi SW 15.0 mph - N/A   Clear
2:53 AM 57.9 °F - 30.9 °F 36% 29.70 in 10.0 mi SW 13.8 mph - N/A   Clear
3:53 AM 57.0 °F - 30.0 °F 36% 29.71 in 10.0 mi WSW 11.5 mph - N/A   Clear
4:53 AM 54.0 °F - 30.0 °F 40% 29.73 in 10.0 mi WSW 10.4 mph - N/A   Clear
5:53 AM 55.9 °F - 30.0 °F 37% 29.73 in 10.0 mi West 10.4 mph - N/A   Clear
6:53 AM 55.0 °F - 30.0 °F 38% 29.75 in 10.0 mi West 11.5 mph - N/A   Clear
7:53 AM 61.0 °F - 30.0 °F 31% 29.75 in 10.0 mi WSW 12.7 mph - N/A   Clear
9:53 AM 73.0 °F - 28.9 °F 20% 29.73 in 10.0 mi WSW 15.0 mph - N/A   Clear
10:53 AM 80.1 °F - 26.1 °F 14% 29.69 in 10.0 mi WSW 15.0 mph 20.7 mph N/A   Clear
11:53 AM 82.9 °F - 23.0 °F 11% 29.69 in 10.0 mi WNW 15.0 mph 25.3 mph N/A   Clear
12:53 PM 84.9 °F - 23.0 °F 10% 29.68 in 10.0 mi West 13.8 mph - N/A   Clear
1:53 PM 84.9 °F - 21.0 °F 10% 29.65 in 10.0 mi West 11.5 mph 25.3 mph N/A   Clear
3:53 PM 82.9 °F - 19.0 °F 9% 29.68 in 10.0 mi NW 9.2 mph - N/A   Clear
4:53 PM 75.0 °F - 27.0 °F 17% 29.75 in 10.0 mi North 35.7 mph 46.0 mph N/A   Clear
5:15 PM 66.2 °F - 33.8 °F 30% 29.93 in 8.0 mi North 38.0 mph 49.5 mph N/A   Mostly Cloudy
5:51 PM 57.2 °F - 33.8 °F 41% 29.97 in 10.0 mi North 35.7 mph 44.9 mph N/A   Scattered Clouds
5:53 PM 57.9 °F - 33.1 °F 39% 29.88 in 10.0 mi North 39.1 mph 49.5 mph N/A   Partly Cloudy
6:53 PM 53.1 °F - 33.1 °F 47% 29.98 in 10.0 mi North 33.4 mph 41.4 mph N/A   Partly Cloudy
7:53 PM 48.0 °F - 32.0 °F 54% 30.07 in 10.0 mi North 26.5 mph 35.7 mph N/A   Mostly Cloudy
8:53 PM 44.1 °F 35.2 °F 30.9 °F 60% 30.12 in 10.0 mi North 23.0 mph 41.4 mph N/A   Clear
9:53 PM 42.1 °F 33.1 °F 28.9 °F 60% 30.18 in 10.0 mi North 20.7 mph 28.8 mph N/A   Mostly Cloudy
10:53 PM 37.9 °F 26.8 °F 25.0 °F 60% 30.20 in 10.0 mi NNW 24.2 mph 34.5 mph N/A   Clear
11:53 PM 37.0 °F 26.2 °F 25.0 °F 62% 30.21 in 10.0 mi NNW 21.9 mph 31.1 mph N/A   Clear